[[{"header":{"parameterUnit":"m.s-1","parameterCategory":1,"la1":30.2991,"la2":30.254,"lo1":-89.0895,"lo2":-89.0444,"dy":0.0017,"dx":0.0017,"nx":28,"ny":28,"refTime":"2025-08-21T21:00:00:Z","depth":0,"parameterNumber":2,"parameterNumberName":"U-component_of_WINDS"},"data":[0,0,0,0,0,0,0,0,0,0,0,0,0,0,0,0,0,0,0,0,0,0,0,0,0,0,0,0,0,0,0,0,0,0,0,0,0,0,0,0,0,0,0,0,0,0,0,0,0,0,0,0,0,0,0,0,0,0,-0.7569,-0.7569,0,-0.7583,-0.7584,-0.7584,-0.7605,-0.7606,-0.7606,-0.7606,-0.7619,-0.7619,-0.7619,0,0,0,0,0,0,0,0,0,0,0,0,0,-0.7559,-0.7559,-0.7569,-0.7569,-0.757,-0.7583,-0.7584,-0.7584,-0.7605,-0.7606,-0.7606,-0.7607,-0.7619,-0.7619,-0.7619,0,0,0,0,0,0,0,0,0,0,0,0,0,-0.7567,-0.7559,-0.7569,-0.7582,-0.7583,-0.7583,-0.7584,-0.7584,-0.7605,-0.7606,-0.7606,-0.7607,-0.7619,-0.7619,-0.7619,-0.7607,0,0,-0.7619,-0.7619,0,0,0,0,0,0,0,0,-0.7567,-0.7568,-0.758,-0.7581,-0.7583,-0.7593,-0.7585,-0.7592,-0.7605,-0.7597,-0.7606,-0.7607,-0.761,-0.7611,-0.7612,-0.7608,-0.7608,-0.7619,-0.7619,-0.7619,-0.7619,0,0,0,0,0,0,0,-0.7566,-0.7567,-0.7575,-0.758,-0.7582,-0.7587,-0.7588,-0.7586,-0.76,-0.7598,-0.7599,-0.7601,-0.7611,-0.7612,-0.7612,-0.7608,-0.7619,-0.7619,-0.7619,-0.7619,-0.7595,-0.7595,0,0,0,0,0,0,-0.7564,-0.7567,-0.7574,-0.7575,-0.7576,-0.7586,-0.7588,-0.7589,-0.76,-0.7602,-0.76,-0.7602,-0.7612,-0.7612,-0.7613,-0.7599,-0.7619,-0.7619,-0.7619,-0.7596,-0.7595,-0.7594,0,0,0,0,0,0,-0.7564,-0.7565,-0.7574,-0.7571,-0.7573,-0.7586,-0.7587,-0.7589,-0.759,-0.7602,-0.7604,-0.7599,-0.7612,-0.7613,-0.7609,-0.76,-0.7619,-0.7619,-0.7596,-0.7596,-0.7595,-0.7572,0,0,0,0,0,0,-0.7563,-0.7564,-0.756,-0.7571,-0.7573,-0.7569,-0.7586,-0.7589,-0.7591,-0.7593,-0.7601,-0.7603,-0.7613,-0.7608,-0.7608,-0.76,-0.7619,-0.7597,-0.7596,-0.7595,-0.7574,-0.7571,-0.7568,0,0,0,0,0,-0.7563,-0.7553,-0.756,-0.7561,-0.7568,-0.7569,-0.757,-0.7581,-0.759,-0.7585,-0.7593,-0.7603,-0.7601,-0.7608,-0.7608,-0.76,-0.7598,-0.7596,-0.7595,-0.7575,-0.7571,-0.7568,0,0,0,0,0,0,-0.7539,-0.7554,-0.7562,-0.7555,-0.7561,-0.7572,-0.7567,-0.7577,-0.7579,-0.7581,-0.7595,-0.7597,-0.759,-0.7595,-0.7602,-0.7589,-0.7601,-0.76,-0.7586,-0.7582,-0.758,-0.7578,-0.7619,0,0,0,0,0,-0.7534,-0.7534,-0.7546,-0.7539,-0.7542,-0.7554,-0.7555,-0.7563,-0.7569,-0.7571,-0.7578,-0.7583,-0.7584,-0.7583,-0.7585,-0.7575,-0.7577,-0.757,-0.7567,-0.7564,-0.7563,-0.7558,-0.7554,-0.759,-0.759,-0.759,0,0,-0.7521,-0.7529,-0.7528,-0.7535,-0.754,-0.7539,-0.7556,-0.7554,-0.7553,-0.7571,-0.7567,-0.7572,-0.7579,-0.7572,-0.7569,-0.7575,-0.7553,-0.7563,-0.7561,-0.756,-0.7556,-0.7552,-0.7549,-0.7589,-0.7589,-0.7589,0,0,-0.7498,-0.7504,-0.7499,-0.7504,-0.7512,-0.7521,-0.7519,-0.753,-0.7534,-0.7531,-0.7544,-0.7544,-0.7544,-0.7548,-0.755,-0.753,-0.7539,-0.753,-0.7514,-0.7509,-0.7506,-0.7504,-0.7496,-0.7493,-0.7528,-0.7528,-0.7528,0,-0.7481,-0.748,-0.7495,-0.7492,-0.7494,-0.7512,-0.7506,-0.751,-0.7518,-0.7519,-0.7526,-0.7528,-0.7533,-0.7527,-0.7522,-0.7524,-0.7522,-0.7528,-0.7506,-0.7504,-0.7501,-0.7494,-0.7491,-0.7527,-0.7527,-0.7527,-0.7527,0,-0.7459,-0.7459,-0.7453,-0.7461,-0.7463,-0.7459,-0.7472,-0.7472,-0.7481,-0.7489,-0.7485,-0.7493,-0.7495,-0.7495,-0.7503,-0.749,-0.7494,-0.7503,-0.7516,-0.7496,-0.7489,-0.7487,-0.7525,-0.7526,-0.7526,-0.7526,0,0,-0.7419,-0.7436,-0.7434,-0.7438,-0.7448,-0.7448,-0.7445,-0.7449,-0.7448,-0.7453,-0.745,-0.7451,-0.7461,-0.7463,-0.7472,-0.7468,-0.745,-0.7478,-0.7478,-0.7472,-0.7436,-0.7427,-0.7424,-0.7457,-0.7457,-0.7456,-0.7435,0,-0.7397,-0.7393,-0.7406,-0.7398,-0.7398,-0.7415,-0.7412,-0.7418,-0.7426,-0.7426,-0.7434,-0.7434,-0.7447,-0.7448,-0.7445,-0.7453,-0.7443,-0.7455,-0.7454,-0.7453,-0.745,-0.742,-0.7411,-0.739,-0.7432,-0.7432,-0.7431,0,-0.737,-0.7374,-0.7367,-0.7379,-0.7379,-0.7376,-0.7381,-0.7381,-0.7389,-0.7395,-0.7398,-0.7409,-0.7406,-0.7419,-0.7415,-0.7423,-0.7424,-0.7428,-0.7427,-0.7426,-0.744,-0.7417,-0.7384,-0.738,-0.7427,-0.7428,-0.7428,0,-0.734,-0.7345,-0.7341,-0.7344,-0.7358,-0.7355,-0.7361,-0.7369,-0.737,-0.7375,-0.7376,-0.7379,-0.7381,-0.7383,-0.7395,-0.7403,-0.7389,-0.7403,-0.7393,-0.7393,-0.7388,-0.7388,-0.7353,-0.739,-0.7391,-0.7391,-0.7391,0,-0.7313,-0.7308,-0.7328,-0.7325,-0.7319,-0.7335,-0.7329,-0.7336,-0.7343,-0.7342,-0.7357,-0.7356,-0.7372,-0.7372,-0.7381,-0.7376,-0.7377,-0.7381,-0.7383,-0.7379,-0.7378,-0.7378,-0.7379,-0.739,-0.739,-0.739,-0.739,0,-0.7278,-0.7292,-0.7289,-0.7303,-0.7306,-0.7301,-0.7313,-0.7311,-0.732,-0.7318,-0.7318,-0.7332,-0.7333,-0.7346,-0.7349,-0.7355,-0.7346,-0.7352,-0.7344,-0.7345,-0.7334,-0.7334,-0.7296,-0.7292,-0.7334,-0.7333,-0.7333,0,-0.7259,-0.7256,-0.727,-0.727,-0.7275,-0.7276,-0.7278,-0.7294,-0.7295,-0.7304,-0.7301,-0.7303,-0.7306,-0.7306,-0.7316,-0.7319,-0.7324,-0.7311,-0.7324,-0.732,-0.7323,-0.7322,-0.7321,-0.7307,-0.7307,-0.7306,-0.7306,0,-0.7224,-0.7231,-0.7234,-0.7239,-0.7241,-0.7246,-0.7251,-0.7251,-0.7268,-0.7269,-0.727,-0.7273,-0.7277,-0.7279,-0.7284,-0.7289,-0.73,-0.7302,-0.73,-0.7294,-0.7289,-0.7291,-0.7334,-0.7302,-0.7303,-0.7303,-0.7303,-0.7303,-0.7196,-0.7193,-0.7203,-0.7205,-0.7211,-0.7216,-0.7215,-0.7225,-0.7227,-0.7232,-0.7241,-0.7241,-0.7249,-0.7257,-0.7261,-0.7261,-0.7268,-0.7265,-0.7263,-0.7262,-0.7259,-0.7291,-0.7262,-0.7263,-0.7263,-0.7263,-0.7263,0,-0.716,-0.7167,-0.717,-0.7178,-0.718,-0.7192,-0.7199,-0.7199,-0.7199,-0.7206,-0.7209,-0.7211,-0.7213,-0.7224,-0.7227,-0.7225,-0.723,-0.7225,-0.7225,-0.7226,-0.7254,-0.7255,-0.7221,-0.7221,-0.7221,-0.7221,-0.7221,-0.7221,-0.7142,-0.7138,-0.7146,-0.7146,-0.7153,-0.7154,-0.7157,-0.7162,-0.7167,-0.7169,-0.7171,-0.7179,-0.7187,-0.7192,-0.7194,-0.7197,-0.7197,-0.719,-0.7195,-0.722,-0.7224,-0.7228,-0.7229,-0.719,-0.719,-0.7167,-0.7166,-0.7166]},{"header":{"parameterUnit":"m.s-1","parameterCategory":1,"la1":30.2991,"la2":30.254,"lo1":-89.0895,"lo2":-89.0444,"dy":0.0017,"dx":0.0017,"nx":28,"ny":28,"refTime":"2025-08-21T21:00:00:Z","depth":0,"parameterNumber":3,"parameterNumberName":"V-component_of_WINDS"},"data":[0,0,0,0,0,0,0,0,0,0,0,0,0,0,0,0,0,0,0,0,0,0,0,0,0,0,0,0,0,0,0,0,0,0,0,0,0,0,0,0,0,0,0,0,0,0,0,0,0,0,0,0,0,0,0,0,0,0,0.8735,0.8735,0,0.8815,0.8816,0.8817,0.8795,0.8793,0.8791,0.879,0.8873,0.8877,0.888,0,0,0,0,0,0,0,0,0,0,0,0,0,0.8563,0.8566,0.8734,0.8735,0.8736,0.8815,0.8816,0.8817,0.8795,0.8793,0.8791,0.8789,0.8872,0.8876,0.8881,0,0,0,0,0,0,0,0,0,0,0,0,0,0.864,0.8567,0.8734,0.8735,0.8736,0.8814,0.8816,0.8817,0.8795,0.8793,0.8791,0.8788,0.887,0.8876,0.8881,0.8964,0,0,0.8898,0.8901,0,0,0,0,0,0,0,0,0.8635,0.8646,0.8734,0.8735,0.8736,0.8792,0.8786,0.8866,0.8796,0.8773,0.879,0.8787,0.8848,0.8855,0.8876,0.8968,0.8972,0.8899,0.8902,0.8905,0.8906,0,0,0,0,0,0,0,0.863,0.8643,0.8766,0.8735,0.8737,0.8731,0.874,0.8801,0.8823,0.8775,0.8773,0.8783,0.8848,0.887,0.8878,0.8973,0.8899,0.8904,0.8907,0.8909,0.9137,0.914,0,0,0,0,0,0,0.8624,0.8638,0.8764,0.8769,0.8679,0.8736,0.8746,0.8777,0.8822,0.8827,0.8785,0.8782,0.8862,0.8871,0.888,0.8981,0.8905,0.891,0.8913,0.9134,0.9138,0.9141,0,0,0,0,0,0,0.862,0.8635,0.876,0.8703,0.8719,0.8742,0.8777,0.878,0.8802,0.883,0.8834,0.8804,0.8861,0.8873,0.8943,0.8983,0.8912,0.8917,0.9131,0.9135,0.9139,0.9182,0,0,0,0,0,0,0.8615,0.8634,0.8666,0.8704,0.8722,0.8822,0.8779,0.8783,0.8811,0.8808,0.8849,0.8853,0.886,0.8935,0.8949,0.899,0.8922,0.9128,0.9133,0.9138,0.9177,0.9187,0.9196,0,0,0,0,0,0.8609,0.8675,0.8668,0.8683,0.8762,0.8825,0.8835,0.8841,0.8815,0.8847,0.8865,0.8852,0.8976,0.8943,0.8958,0.9001,0.9125,0.9132,0.9137,0.9173,0.9185,0.9195,0,0,0,0,0,0,0.8642,0.868,0.8672,0.8752,0.8785,0.8821,0.8862,0.8853,0.8895,0.889,0.8895,0.8905,0.8977,0.8996,0.8958,0.9084,0.9047,0.9057,0.9069,0.9081,0.909,0.9084,0.8926,0,0,0,0,0,0.8658,0.8706,0.8736,0.8804,0.8821,0.8838,0.8866,0.8867,0.8902,0.8916,0.8939,0.8974,0.9021,0.9051,0.9096,0.9179,0.9188,0.9216,0.9225,0.9233,0.9241,0.9287,0.93,0.9161,0.9161,0.916,0,0,0.8693,0.8719,0.8749,0.8811,0.8837,0.8886,0.885,0.8904,0.8941,0.8924,0.8993,0.9011,0.905,0.9127,0.9162,0.9145,0.9281,0.9241,0.9246,0.9251,0.9294,0.9307,0.9319,0.9165,0.9164,0.9163,0,0,0.8781,0.8806,0.8865,0.8891,0.893,0.8941,0.8955,0.8992,0.9003,0.9072,0.9061,0.9104,0.9185,0.9213,0.9237,0.9335,0.9324,0.9349,0.9397,0.9442,0.9452,0.9462,0.9497,0.951,0.9357,0.9357,0.9357,0,0.8819,0.8893,0.8896,0.8951,0.8979,0.8965,0.9025,0.905,0.9102,0.9122,0.9101,0.9202,0.9227,0.931,0.9334,0.9354,0.9371,0.9345,0.945,0.946,0.947,0.9503,0.9516,0.936,0.936,0.9359,0.9359,0,0.8938,0.8989,0.9032,0.9082,0.9114,0.9171,0.9183,0.9216,0.9214,0.9227,0.9297,0.9326,0.9376,0.9396,0.9395,0.948,0.9468,0.9449,0.9413,0.9486,0.9517,0.953,0.9364,0.9363,0.9362,0.9362,0,0,0.9051,0.9101,0.9116,0.9139,0.918,0.922,0.9276,0.9325,0.9352,0.9388,0.9436,0.9504,0.9486,0.9514,0.9516,0.9555,0.963,0.9531,0.9532,0.9549,0.9725,0.974,0.9755,0.9623,0.9625,0.9627,0.9722,0,0.9143,0.9241,0.9246,0.9336,0.9383,0.937,0.9419,0.945,0.9463,0.9505,0.952,0.9568,0.9541,0.9558,0.9596,0.9613,0.9666,0.9606,0.9668,0.967,0.9659,0.9771,0.9787,0.9875,0.9735,0.9737,0.9738,0,0.9264,0.9303,0.9398,0.9432,0.9452,0.9496,0.9541,0.9581,0.9615,0.9622,0.9653,0.9649,0.9706,0.9667,0.9746,0.9705,0.9731,0.9743,0.9746,0.9753,0.9709,0.9782,0.9904,0.9917,0.9758,0.9756,0.9755,0,0.9338,0.9414,0.948,0.9499,0.9541,0.9572,0.9591,0.9623,0.9652,0.969,0.9709,0.9754,0.9779,0.9814,0.9823,0.9793,0.9902,0.9863,0.9909,0.9909,0.9934,0.9933,1.0062,0.9949,0.9949,0.9948,0.9948,0,0.9441,0.95,0.9514,0.9555,0.9619,0.9623,0.9688,0.9704,0.9733,0.9776,0.9768,0.9809,0.9817,0.986,0.9867,0.9931,0.9943,0.995,0.9951,0.9952,0.9951,0.9969,0.9963,0.9952,0.9951,0.995,0.995,0,0.9535,0.9546,0.9618,0.9651,0.966,0.9707,0.9735,0.9774,0.9786,0.9842,0.9855,0.9874,0.9924,0.9935,0.9995,0.9999,1.0076,1.0071,1.0064,1.0064,1.011,1.0106,1.0257,1.0277,1.015,1.0151,1.0152,0,0.9601,0.9645,0.9683,0.9711,0.9731,0.9777,0.9806,0.9812,0.9842,0.9884,0.9918,0.9967,1.0007,1.0087,1.0107,1.0152,1.0148,1.0198,1.0155,1.0154,1.015,1.0147,1.0152,1.0207,1.0208,1.0209,1.021,0,0.9716,0.972,0.9762,0.9806,0.984,0.9875,0.9908,0.9932,0.9942,0.9977,1.0028,1.0058,1.0119,1.0168,1.0213,1.0232,1.0223,1.0223,1.0236,1.0237,1.0232,1.0236,1.0088,1.022,1.0219,1.0218,1.0218,1.0217,0.9799,0.9838,0.987,0.9917,0.9942,0.9973,1.0011,1.0027,1.007,1.0119,1.0119,1.0175,1.0207,1.0267,1.0289,1.0333,1.0317,1.0336,1.0341,1.0346,1.0351,1.0224,1.0341,1.0341,1.034,1.034,1.034,0,0.9915,0.9934,0.9977,1.0024,1.006,1.0047,1.0083,1.0115,1.0164,1.0195,1.0233,1.0292,1.0339,1.0361,1.0407,1.0438,1.0435,1.045,1.0448,1.0453,1.0362,1.0346,1.0451,1.0451,1.0451,1.0451,1.0451,1.0451,0.9979,1.0044,1.0051,1.0128,1.0147,1.0202,1.0223,1.0252,1.0276,1.0341,1.038,1.0394,1.0421,1.0469,1.0512,1.0517,1.0535,1.0552,1.0555,1.047,1.0459,1.0448,1.0433,1.0556,1.0556,1.0643,1.0644,1.0644]}]]